Weather History for Morgantown, WV

Change the Weather History Date:

Thursday, April 25, 2013

  Actual Average Record
Temperature  
Mean Temperature 47 °F 56 °F  
Max Temperature 60 °F 67 °F 88 °F (2009)
Min Temperature 34 °F 44 °F 26 °F (1956)
Degree Days  
Heating Degree Days 18 10  
Month to date heating degree days 259 335  
Since 1 July heating degree days 4731 4936  
Cooling Degree Days 0 1  
Month to date cooling degree days 36 7  
Year to date cooling degree days 36 9  
Moisture  
Dew Point 31 °F    
Average Humidity 60    
Maximum Humidity 89    
Minimum Humidity 30    
Precipitation  
Precipitation 0.00 in 0.12 in 1.03 in (1975)
Month to date precipitation 1.59 2.93  
Year to date precipitation 8.54 11.99  
Sea Level Pressure  
Sea Level Pressure 30.27 in    
Wind  
Wind Speed 5 mph (WSW)    
Max Wind Speed 14 mph    
Max Gust Speed 21 mph    
Visibility 10 miles    
Events      
T = Trace of Precipitation, MM = Missing Value Source: NWS Daily Summary

Daily Weather History Graph

Daily Weather History Graph

Search for Another Location

Airport:

Trip Planner

Search our weather history database for the weather conditions in past years. The results will help you decide how hot, cold, wet, or windy it might be!

Date:

Astronomy

Apr. 25, 2013 Rise Set
Actual Time 6:27 AM EDT 8:07 PM EDT
Civil Twilight 5:59 AM EDT 8:36 PM EDT
Nautical Twilight 5:24 AM EDT 9:11 PM EDT
Astronomical Twilight 4:47 AM EDT 9:48 PM EDT
Moon 8:19 PM EDT (4/25) 6:09 AM EDT (4/25)
Length of Visible Light 14h 37m
Length of Day
13h 40m
Full, 100% of the Moon is Illuminated
Apr 25
Full
Apr 25
Full
May 2
Last Quarter
May 9
New
May 18
First Quarter

Hourly Weather History & Observations

Time (EDT) Temp. Windchill Dew Point Humidity Pressure Visibility Wind Dir Wind Speed Gust Speed Precip Events Conditions
12:01 AM 42.8 °F 39.3 °F 33.8 °F 70% 30.19 in 10.0 mi Variable 5.8 mph - N/A   Mostly Cloudy
12:10 AM 42.8 °F 38.0 °F 33.8 °F 70% 30.19 in 10.0 mi West 8.1 mph - N/A   Mostly Cloudy
12:53 AM 42.1 °F 37.1 °F 33.1 °F 70% 30.19 in 10.0 mi WNW 8.1 mph - N/A   Mostly Cloudy
1:00 AM 42.8 °F 39.3 °F 33.8 °F 70% 30.20 in 10.0 mi West 5.8 mph - N/A   Mostly Cloudy
1:53 AM 41.0 °F 35.2 °F 34.0 °F 76% 30.21 in 10.0 mi West 9.2 mph - N/A   Overcast
2:26 AM 39.2 °F 34.2 °F 33.8 °F 81% 30.22 in 10.0 mi WNW 6.9 mph - N/A   Mostly Cloudy
2:53 AM 39.9 °F 37.8 °F 33.1 °F 77% 30.22 in 10.0 mi West 3.5 mph - N/A   Partly Cloudy
3:53 AM 37.9 °F 35.5 °F 32.0 °F 79% 30.25 in 10.0 mi Variable 3.5 mph - N/A   Clear
4:53 AM 37.0 °F - 33.1 °F 86% 30.26 in 10.0 mi Calm Calm - N/A   Scattered Clouds
5:53 AM 35.1 °F - 32.0 °F 89% 30.26 in 10.0 mi Calm Calm - N/A   Clear
6:53 AM 35.1 °F - 32.0 °F 89% 30.28 in 10.0 mi Calm Calm - N/A   Clear
7:53 AM 37.9 °F 35.5 °F 34.0 °F 86% 30.30 in 10.0 mi South 3.5 mph - N/A   Clear
8:53 AM 43.0 °F 40.3 °F 35.1 °F 74% 30.31 in 10.0 mi WNW 4.6 mph - N/A   Clear
9:53 AM 45.0 °F 42.6 °F 28.9 °F 53% 30.32 in 10.0 mi Variable 4.6 mph - N/A   Clear
10:53 AM 48.0 °F - 26.1 °F 42% 30.32 in 10.0 mi SW 5.8 mph - N/A   Scattered Clouds
11:53 AM 48.9 °F - 28.0 °F 44% 30.32 in 10.0 mi Variable 6.9 mph - N/A   Clear
12:53 PM 52.0 °F - 28.0 °F 40% 30.30 in 10.0 mi Variable 5.8 mph - N/A   Clear
1:53 PM 55.0 °F - 30.0 °F 38% 30.29 in 10.0 mi Variable 5.8 mph - N/A   Clear
2:53 PM 55.0 °F - 28.9 °F 37% 30.27 in 10.0 mi Variable 5.8 mph 17.3 mph N/A   Clear
3:53 PM 57.0 °F - 28.9 °F 34% 30.25 in 10.0 mi SSW 8.1 mph 17.3 mph N/A   Clear
4:53 PM 57.9 °F - 28.9 °F 33% 30.23 in 10.0 mi SSW 6.9 mph - N/A   Clear
5:53 PM 57.9 °F - 26.1 °F 30% 30.25 in 10.0 mi SW 6.9 mph - N/A   Mostly Cloudy
6:53 PM 57.0 °F - 26.1 °F 30% 30.27 in 10.0 mi WSW 13.8 mph - N/A   Mostly Cloudy
7:53 PM 55.9 °F - 26.1 °F 32% 30.27 in 10.0 mi Variable 3.5 mph - N/A   Mostly Cloudy
8:53 PM 55.0 °F - 26.1 °F 33% 30.30 in 10.0 mi West 3.5 mph - N/A   Mostly Cloudy
9:53 PM 53.1 °F - 27.0 °F 37% 30.32 in 10.0 mi Calm Calm - N/A   Partly Cloudy
10:53 PM 51.1 °F - 30.0 °F 44% 30.34 in 10.0 mi Calm Calm - N/A   Overcast
11:53 PM 48.0 °F - 34.0 °F 58% 30.36 in 10.0 mi NNW 8.1 mph 17.3 mph N/A   Scattered Clouds